User: anonymous   Login
Location: Bangkok
(13.7500°N, 100.5170°E)
Time: 06:49:18
(UTC+07:00)
Language:

ERBS - Orbit

View from above orbital plane
View from above orbital plane
View from above satellite
View from above satellite

Ground track
Ground track

The orbit data is extracted from the following two-line orbital elements,

1 15354U 84108B   16125.42892333  .00005698  00000-0  14758-3 0  9994
2 15354  57.0083  94.2413 0016845  60.4605 299.8125 15.40472697735142
Epoch (UTC): 04 May 2016 10:17:38
Eccentricity: 0.0016845
inclination: 57.0083°
perigee height: 433 km
apogee height: 456 km
right ascension of ascending node: 94.2413°
argument of perigee: 60.4605°
revolutions per day: 15.40472697
mean anomaly at epoch: 299.8125°
orbit number at epoch: 73514

The dashed part of the orbit path shows where the satellite is in the earth's shadow,  

DLR